Inquirer Daily News

Weather

Get conditions and forecasts for any City, State, ZIP code or Country:  
Northeast Philadelphia, PA
on Monday, January 21, 2013

Monday
Previous Day Next Day
Daily Summary
 ActualAverage (KTTN)Record (KTTN)
Temperature
Mean Temperature °F 31°F  
Max Temperature 33°F 39°F 64°F (1959)
Min Temperature 26°F 23°F -10°F (1985)
Degree Days
Heating Degree Days 36 34  
Month to date heating degree days 713  
Since 1 July heating degree days 2608  
Cooling Degree Days 0 0  
Month to date cooling degree days 0  
Year to date cooling degree days 0  
Moisture
Dew Point 13°F   
Average Humidity 55    
Maximum Humidity 93    
Minimum Humidity 40    
Precipitation
Precipitation 0.01 in 0.09 in 2.22 in (1979)
Month to date precipitation 2.15  
Year to date precipitation 2.15  
Wind
Wind Speed 5 mph   
Max Wind Speed 15 mph   
Max Gust Speed 20 mph   
Visibility 8 miles   
Events Snow   

Key: T is trace of precipitation, MM is missing value
Source: NWS Daily Summary
Time(EST)TemperatureDew PointHumidity Pressure Visibility Wind DirectionWind SpeedGust SpeedPrecipitationEvents Conditions
12:54 AM 28.9°F 9.0°F 43% 30.11 in 10.0 miles WNW 8.1 mph - N/A   Clear
1:54 AM 28.0°F 10.0°F 47% 30.12 in 10.0 miles NW 5.8 mph - N/A   Clear
2:54 AM 27.0°F 10.0°F 49% 30.13 in 10.0 miles WNW 3.5 mph - N/A   Clear
3:54 AM 27.0°F 10.0°F 49% 30.12 in 10.0 miles NW 4.6 mph - N/A   Clear
4:54 AM 26.1°F 9.0°F 49% 30.12 in 10.0 miles NNW 3.5 mph - N/A   Clear
5:54 AM 26.1°F 9.0°F 49% 30.11 in 10.0 miles NNW 3.5 mph - N/A   Clear
6:54 AM 26.1°F 8.1°F 47% 30.12 in 10.0 miles Calm Calm - N/A   Clear
7:54 AM 26.1°F 9.0°F 49% 30.13 in 10.0 miles Calm Calm - N/A   Partly Cloudy
8:54 AM 27.0°F 9.0°F 47% 30.13 in 10.0 miles West 3.5 mph - N/A   Overcast
9:54 AM 28.0°F 8.1°F 43% 30.12 in 10.0 miles Calm Calm - N/A   Overcast
10:54 AM 28.9°F 8.1°F 41% 30.10 in 10.0 miles Variable 3.5 mph - N/A   Overcast
11:54 AM 30.0°F 9.0°F 41% 30.06 in 10.0 miles SW 5.8 mph - N/A   Mostly Cloudy
12:54 PM 30.9°F 10.0°F 42% 30.01 in 10.0 miles South 4.6 mph - N/A   Overcast
1:54 PM 32.0°F 10.0°F 40% 29.98 in 10.0 miles SSW 4.6 mph - N/A   Overcast
2:54 PM 33.1°F 10.9°F 40% 29.94 in 10.0 miles Calm Calm - N/A   Overcast
3:54 PM 33.1°F 12.0°F 42% 29.90 in 10.0 miles East 3.5 mph - N/A   Overcast
4:54 PM 33.1°F 12.0°F 42% 29.89 in 10.0 miles Calm Calm - N/A   Partly Cloudy
5:54 PM 32.0°F 12.9°F 45% 29.89 in 10.0 miles NNE 8.1 mph - N/A   Overcast
6:54 PM 32.0°F 12.9°F 45% 29.90 in 10.0 miles North 15.0 mph - N/A   Overcast
7:27 PM 28.4°F 21.2°F 74% 29.90 in 1.8 miles NNW 8.1 mph - 0.00 in Snow Light Snow
7:32 PM 28.4°F 23.0°F 80% 29.90 in 0.8 miles North 10.4 mph - 0.00 in Snow Light Snow
7:54 PM 27.0°F 25.0°F 92% 29.92 in 1.5 miles NNW 8.1 mph - 0.01 in Snow Light Snow
7:58 PM 26.6°F 24.8°F 93% 29.91 in 2.0 miles NNW 6.9 mph - 0.00 in Snow Light Snow
8:07 PM 26.6°F 24.8°F 93% 29.91 in 6.0 miles NNW 8.1 mph - 0.00 in Snow Light Snow
8:54 PM 28.0°F 21.0°F 75% 29.91 in 6.0 miles NNW 8.1 mph - 0.00 in Snow Light Snow
9:54 PM 27.0°F 19.0°F 72% 29.90 in 10.0 miles NW 3.5 mph - 0.00 in   Mostly Cloudy
10:54 PM 27.0°F 16.0°F 63% 29.91 in 10.0 miles NW 13.8 mph 19.6 mph N/A   Clear
11:54 PM 26.1°F 8.1°F 47% 29.91 in 10.0 miles WNW 10.4 mph - N/A   Clear
Astronomy
Sunrise:07:17 AM (EST) Moon Rise:12:44 PM (EST)1/21
Sunset:05:06 PM (EST) Moon Set:02:43 AM (EST)1/21
Moon Phase
Jan. 21 Jan. 26 Feb. 03 Feb. 10 Feb. 17

Copyright © 2014 The Weather Underground, Inc.